CZ-3C DEB, 40855

Orbit data source: Space-Track

CZ-3C DEB, 40855 is space debris in HEO originally from a launch on Fri, 24 Feb 2012 UTC launched from the Xichang Space Center, China (XSC). Debris objects in space refer to the collection of defunct objects orbiting the Earth. Examples of debris include non-operational satellites, rocket bodies, and fragments generated from explosions, collisions, or faulty payload assembly.

Loading next visibility...
Identifier
40855, 2012-008V
Orbit
HEO
Country
Flag of CNCN / PRC
Related business
Manufacturer
CALT
Mission
Spacecraft
Bus & Motor
Unknown
Mass
Unknown
Launch date (UTC)
2012-02-24 (14 years ago)
Launch vehicle
Unknown
Launch site
Xichang Space Center, China (XSC)
Object type
Payload
Rocket body
Debris
Shape & HBR
Unknown shape, 0.2 m
Radar Cross Section
Medium (>0.1 m² and <1 m²)

Expand to show TLE details & history
Last TLE update: 1 day ago

TLE from 1 day ago
0 CZ-3C DEB
1 40855U 12008V   26235.27696771  .00000170  00000-0  62163-2 0  9994
2 40855  22.6497 312.0534 7060004 256.9753  83.7470  2.32137678 99901
Epoch: 2026-08-23T06:38Z
TLE epoch observation values (Epoch: 2026-08-23T06:38:50.010Z)
Latitude
17.01828°
Longitude
-72.05153°
Altitude
25,984.16 km
Speed
2.844 km/s
True Right ascension
23h 56m 55s
True Declination
16° 59' 50"
Sunlit
Object was in daylight at epoch
Visualization orbit readout
Latitude
Unknown
Longitude
Unknown
Altitude
Unknown
Speed
Unknown
Apparent Right ascension
Unknown
Apparent Declination
Unknown
Sunlit
N/A
Visualization observer readout
Local Sidereal Time
21:35:27
Azimuth
Unknown
Elevation
Unknown
Doppler factor
Unknown
Orbital elements
Apogee altitude
34,732.696 km
Perigee altitude
706.602 km
Semi-major axis
24,097.786 km
Eccentricity
0.706
Inclination
22.6497°
RAAN
312.0534°
Arg. of periapsis
256.9753°
True anomaly
152.56774°
Mean anomaly
83.747°
Eccentric anomaly
119.09391°
Mean motion
0.5802 °/min
Orbital period
620.48 mins
BSTAR
0.0062163
Loading maneuver chart data...
Computing Atmospheric mass density...
Loading historical data...
Loading historical data...
Loading historical data...
Loading historical data...
Loading historical data...
Loading historical data...
Loading historical data...

Documentation

Showing up to 5 results
|